Dewpoint
28 21 20 20 17 21 19 17 10 8 10 12 15 15 15 21 23 24 24 27 28 29 31 32 34 36 36 38 37 37 38 40 39 37 37 37 37 37 37 36 36 37 37 37
24 19 19 18 19 18 16 13 11 12 12 15 16 15 12 13 24 23 24 26 28 30 30 31 32 35 37 37 37 36 36 37 37 37 37 38 37 36 35 35 34 35 35 36
23 18 18 19 17 15 15 14 14 13 13 12 10 8 11 14 23 22 25 27 29 29 30 31 31 34 35 35 36 34 35 35 38 39 36 36 35 35 33 32 32 33 34 35
19 17 16 17 18 14 14 15 15 14 14 9 9 9 9 17 21 24 27 29 29 30 30 30 31 31 33 34 36 35 35 34 35 39 36 35 33 32 32 32 32 32 33 33
17 17 18 19 14 15 14 15 16 16 10 13 10 12 10 14 20 25 27 29 31 31 31 30 30 29 29 32 33 35 34 33 35 37 36 34 33 33 32 32 31 31 32 32
19 18 16 16 14 16 16 14 15 18 18 18 17 16 12 18 23 27 29 31 31 30 30 29 30 30 29 29 31 33 30 29 33 35 35 34 32 31 31 30 29 30 31 31
19 16 16 14 14 15 17 17 18 16 20 17 15 15 17 28 29 30 33 31 31 31 31 30 29 30 29 27 28 30 27 25 29 32 34 33 31 31 30 30 29 30 30 30
14 16 13 16 14 12 19 16 17 8 13 14 15 10 22 30 31 32 33 36 31 32 31 32 34 32 29 26 29 29 26 23 26 29 32 32 30 31 30 29 31 30 31 31
14 10 16 17 15 12 8 10 15 18 19 19 14 13 28 29 30 32 34 33 32 31 33 34 31 30 32 30 32 31 28 24 26 28 29 29 30 29 29 28 30 30 31 32
18 19 14 17 17 17 14 11 16 24 16 12 10 16 32 34 32 34 37 37 36 33 32 32 33 30 33 32 34 30 27 26 26 26 27 26 28 28 26 27 28 29 30 31
18 30 14 15 17 13 8 13 18 15 16 17 18 25 35 35 39 42 37 36 41 39 36 34 32 31 30 33 32 32 30 29 30 27 27 26 28 27 27 27 28 29 29 30
19 23 18 12 14 13 11 14 16 23 16 23 29 28 35 31 37 37 42 37 37 39 34 35 34 32 32 30 29 31 32 30 32 31 29 28 28 28 28 27 27 28 28 28
23 19 14 10 10 9 12 15 15 19 25 24 26 30 28 27 26 29 37 41 36 38 34 33 34 33 31 30 31 32 32 32 33 31 30 30 30 29 29 29 27 27 27 26
26 17 13 16 16 14 18 19 14 19 30 25 24 23 23 22 23 24 26 40 36 36 34 30 32 32 31 30 32 31 29 34 33 33 30 30 30 29 30 30 26 26 26 25
16 19 15 11 10 13 12 13 15 12 15 16 22 17 18 20 22 27 34 37 35 33 31 30 30 31 31 28 26 22 23 24 23 23 25 31 31 31 31 30 29 26 25 25
20 27 30 26 19 15 15 23 14 14 18 19 18 19 21 21 29 32 36 35 34 32 30 29 29 29 26 20 18 19 21 23 22 20 21 22 22 22 27 29 28 26 25 24
23 22 23 19 16 12 15 26 26 16 15 15 15 18 29 31 28 33 35 35 33 31 30 30 29 26 23 21 20 23 21 23 22 21 20 20 21 21 22 22 23 24 23 24
20 22 23 20 18 14 21 15 14 14 14 14 12 13 28 33 30 34 35 34 32 31 29 28 33 28 26 24 23 24 21 22 23 23 21 21 21 21 21 21 21 23 23 22
20 22 22 20 16 14 12 12 15 16 16 17 17 24 26 27 29 34 33 32 32 30 28 27 28 30 27 25 23 23 24 22 22 25 25 22 22 21 23 22 23 22 23 24
17 24 22 21 15 12 17 15 21 21 18 26 27 28 28 27 29 35 36 35 32 27 26 26 26 24 22 22 22 23 24 25 24 24 25 26 25 25 25 25 25 24 22 25
20 19 21 22 19 16 15 17 23 19 24 31 29 28 30 31 34 36 34 32 29 25 23 23 22 19 18 18 19 20 21 25 23 18 19 24 26 28 27 27 25 26 26 25
20 20 22 22 20 18 20 23 22 27 29 26 27 31 34 35 36 35 34 32 26 22 19 18 17 15 15 15 15 13 13 13 13 13 15 15 17 15 16 23 23 24 24 25
18 19 23 21 23 31 32 32 32 30 28 30 32 32 34 37 38 37 34 31 24 19 17 15 13 13 12 11 11 11 12 11 9 9 10 12 11 11 12 16 17 18 19 20
21 19 25 27 27 21 27 26 27 28 31 31 32 34 35 37 35 33 30 28 23 16 14 11 12 11 11 12 11 14 12 10 9 8 10 11 9 10 9 8 13 13 14 15
28 28 26 27 27 25 24 28 31 33 33 31 34 33 33 35 35 31 29 26 21 16 12 10 11 13 12 10 12 11 10 10 6 8 10 12 14 12 11 12 14 14 18 15
23 25 30 31 33 32 32 35 35 33 32 32 32 33 32 32 33 31 28 26 20 15 12 9 10 12 10 10 10 11 10 9 10 10 12 15 16 16 14 14 15 17 18 16
Lifted_Index
6 6 5 5 5 4 4 3 4 4 4 3 4 4 4 4 5 6 6 6 7 8 9 10 11 11 11 11 11 12 13 13 13 13 13 13 13 12 12 13 13 14 15 16
6 5 5 5 5 5 4 4 4 4 4 4 4 4 4 4 5 6 6 6 6 8 9 10 10 11 11 11 11 12 12 13 13 13 13 13 12 12 12 12 13 15 16 17
5 5 6 6 6 5 5 5 5 5 4 4 4 4 4 4 4 5 5 5 6 7 8 9 10 10 10 11 11 12 12 13 13 13 13 12 12 11 11 11 13 15 17 18
5 5 5 6 6 6 5 5 5 5 4 4 4 3 3 2 3 4 4 5 5 6 7 8 9 9 10 11 11 12 13 13 13 13 13 13 12 11 11 11 13 15 17 18
5 5 5 5 5 6 6 5 5 5 4 4 3 3 2 1 1 3 4 4 4 5 6 7 8 9 10 10 11 12 13 13 13 13 13 14 13 12 11 12 12 13 16 18
5 5 5 5 5 5 5 5 4 4 3 3 2 1 1 0 1 2 2 3 3 4 5 6 7 8 9 10 10 12 13 13 13 13 14 15 14 14 13 12 12 12 14 16
4 4 5 6 5 5 4 4 3 2 2 1 1 1 0 1 1 1 1 2 3 3 4 5 6 6 7 8 10 11 13 14 14 14 15 16 16 15 14 13 12 12 13 14
3 3 4 5 5 4 3 3 2 1 1 1 1 1 1 1 1 1 1 2 2 3 4 5 5 5 6 8 9 11 12 13 14 15 16 17 17 16 15 14 13 13 14 15
3 3 4 5 5 4 3 3 2 2 1 2 2 2 1 1 1 1 1 2 2 3 4 5 5 5 6 8 10 11 13 14 15 16 17 18 18 17 16 15 15 14 15 16
3 3 3 4 5 4 3 3 2 2 1 1 2 1 0 0 1 1 1 2 3 4 4 4 4 5 6 8 10 12 13 14 15 17 18 19 19 19 18 18 17 16 16 16
3 3 3 3 4 3 3 2 2 1 1 1 1 1 0 -0 -0 0 1 2 3 3 3 4 4 5 6 8 10 13 14 15 16 17 18 19 19 20 20 19 19 18 17 17
3 3 3 2 2 2 2 2 1 1 1 1 1 1 0 -0 -0 -0 1 2 2 3 3 3 4 5 6 8 11 13 14 15 16 17 18 19 20 20 20 20 20 20 19 19
3 3 2 2 1 1 2 1 1 0 0 1 1 1 0 0 1 1 1 2 2 2 2 3 4 5 7 9 11 13 14 15 16 17 18 19 20 20 20 20 20 21 20 20
3 3 2 2 1 1 1 1 1 1 0 1 1 1 1 1 2 1 1 2 2 2 2 3 3 5 7 9 11 13 14 15 16 17 18 19 19 20 20 20 20 20 20 20
3 3 2 2 2 2 2 2 2 1 1 1 2 2 2 2 2 1 1 1 1 2 2 2 3 5 7 9 11 13 14 15 16 17 18 18 19 19 20 20 20 20 20 20
3 2 2 2 2 2 2 2 2 2 2 2 2 2 2 2 1 1 0 0 1 1 1 2 3 5 7 9 12 13 15 16 17 17 18 18 19 19 19 19 19 18 19 19
2 2 2 2 2 2 2 2 2 2 2 2 2 2 1 1 1 0 -0 -0 0 1 1 2 3 5 8 10 12 14 15 16 17 17 18 18 19 19 18 18 17 17 17 18
2 1 1 1 1 2 2 2 2 2 2 2 2 1 1 1 1 1 0 0 1 1 2 3 4 6 9 11 13 14 15 16 17 17 17 18 18 18 17 16 16 16 16 16
2 1 1 1 1 1 1 1 1 1 1 1 1 1 1 1 1 1 1 1 1 2 3 4 6 8 10 12 14 15 15 16 16 17 17 17 17 17 16 15 15 15 16 16
2 2 1 1 1 1 1 1 1 1 1 1 1 1 1 1 1 1 1 2 2 3 4 5 7 9 11 13 14 15 15 16 16 16 17 17 16 16 15 15 15 16 16 16
1 1 1 1 1 1 1 1 1 1 1 1 1 1 1 1 1 2 2 2 3 4 6 7 8 10 12 14 15 15 15 16 16 16 16 16 16 16 16 16 16 16 16 16
0 1 0 0 1 1 1 1 1 1 1 1 1 1 1 1 2 2 2 3 4 5 7 9 10 11 13 14 15 15 15 16 16 16 16 16 16 17 16 16 16 17 16 16
0 -0 -0 0 0 1 0 0 1 1 1 1 1 1 1 1 2 2 3 3 4 6 8 10 11 12 13 14 15 15 15 15 16 16 16 16 16 17 17 17 17 17 17 16
-0 -0 0 0 0 0 0 0 1 1 1 1 1 1 2 2 2 2 3 4 5 8 9 11 12 12 13 15 15 15 15 15 15 15 15 16 16 16 16 17 17 17 17 16
0 0 0 0 0 0 0 0 0 0 0 1 1 1 2 2 3 3 3 4 6 9 10 12 12 13 14 15 15 15 15 15 15 15 15 15 15 16 16 16 16 16 17 17
1 1 1 0 0 -0 -0 0 0 0 1 1 1 2 2 3 3 3 4 5 7 9 11 12 12 13 14 15 15 15 15 15 15 15 15 15 15 15 16 16 16 16 17 17